Theta_e
357 359 358 358 358 358 358 363 360 358 359 356 353 352 351 355 353 353 355 355 359 362 361 360 360 358 357 357 357 356 358 358 356 355 354 354 355 356 357 357 356 356 355
360 358 357 354 355 358 359 361 359 356 356 355 353 352 353 355 354 354 355 357 359 363 362 361 361 361 358 357 357 356 357 359 360 359 358 358 358 357 356 356 355 355 357
361 360 356 354 355 359 357 359 359 356 354 354 354 354 353 356 353 353 356 356 357 362 363 362 362 363 363 360 360 359 358 358 361 360 361 360 359 358 357 356 355 356 356
362 360 357 355 357 356 358 355 356 353 352 349 350 352 352 355 354 354 354 355 355 354 360 363 362 361 362 363 362 362 360 359 358 360 360 359 360 359 358 359 358 358 358
360 359 355 354 359 355 356 353 353 355 351 350 348 350 353 353 353 351 352 354 357 357 356 358 361 361 361 361 361 362 362 361 359 359 359 360 359 358 358 358 359 359 358
359 358 356 357 358 354 353 351 350 355 353 351 349 348 351 352 353 352 352 352 353 356 359 360 358 358 361 363 361 363 362 362 361 360 360 359 359 358 357 357 357 357 357
359 359 357 358 359 356 355 352 353 354 353 354 348 348 349 351 351 350 351 351 352 353 355 358 359 358 357 360 360 361 362 363 362 361 361 360 359 358 357 356 355 356 356
359 358 358 358 359 357 357 357 355 350 351 353 345 344 338 341 345 346 347 349 351 351 351 353 356 359 359 358 361 361 362 363 363 362 361 358 357 357 356 356 355 354 355
359 358 360 360 360 359 358 357 358 354 347 350 351 346 336 332 337 343 347 347 349 348 349 352 353 355 358 357 357 358 360 358 361 364 363 361 357 355 355 355 355 354 354
359 359 361 358 360 358 359 360 358 356 355 349 349 349 352 347 336 333 344 347 350 350 352 351 350 352 356 356 357 357 356 353 357 360 362 363 361 358 356 356 356 355 354
359 358 360 359 359 358 361 360 361 356 356 353 350 352 348 346 347 340 335 339 345 348 350 352 351 351 354 356 355 355 354 353 353 354 356 359 360 361 360 359 359 358 358
357 359 359 360 360 360 360 361 361 359 358 355 356 351 352 343 342 341 338 340 340 345 348 349 350 351 352 352 357 354 355 354 351 351 352 354 356 358 360 362 363 362 360
351 355 358 358 357 359 360 361 360 360 357 357 357 354 350 349 349 345 343 340 339 344 346 348 350 351 352 354 355 354 355 352 349 346 346 348 350 353 355 358 359 358 358
339 346 349 352 354 357 358 359 356 355 359 356 356 357 354 350 350 349 345 342 338 340 344 346 350 352 353 355 356 353 354 349 347 345 343 343 344 347 348 349 349 352 354
340 342 344 345 349 353 356 358 356 355 357 357 356 357 355 356 351 351 350 351 344 336 334 343 345 354 352 354 355 357 358 352 348 344 340 339 340 341 341 343 344 345 344
340 340 340 341 343 347 351 355 354 355 352 351 353 353 353 353 353 351 350 349 347 345 338 344 344 353 353 350 353 357 357 350 345 343 340 337 337 337 338 339 341 340 340
338 338 338 339 339 340 347 350 351 353 352 349 349 349 350 352 349 350 354 349 348 347 340 344 348 353 355 351 351 355 357 358 354 342 340 338 335 335 336 336 337 338 339
337 337 337 337 337 338 341 345 347 348 351 348 348 347 347 348 348 345 347 348 342 350 345 345 348 348 353 356 355 356 355 354 355 348 340 337 335 333 332 332 333 333 332
335 335 336 335 336 336 339 342 345 345 349 350 352 349 347 345 346 346 347 347 343 346 347 343 344 349 349 351 352 356 357 358 356 350 341 337 335 333 331 330 329 326 324
334 334 334 335 336 335 335 337 341 344 346 348 350 352 350 350 345 344 340 341 342 342 343 341 345 346 347 352 350 346 348 353 352 353 349 343 342 338 334 331 330 329 323
334 333 333 334 333 331 329 332 338 340 341 344 348 349 351 348 342 341 337 338 339 341 342 338 338 340 343 344 345 345 346 347 354 355 352 353 354 354 351 336 343 334 327
331 330 329 327 324 326 326 326 330 337 338 343 345 348 348 340 337 330 331 332 338 339 338 335 337 338 343 344 346 345 347 345 342 354 352 349 353 352 354 355 342 335 327
329 327 326 320 327 328 324 322 326 333 335 339 344 347 345 343 337 339 330 329 331 330 334 346 340 340 343 347 351 347 349 349 346 351 353 346 352 351 354 353 333 330 327
326 325 321 319 326 329 323 320 323 334 339 336 342 343 344 344 342 341 340 339 339 344 342 340 341 345 351 351 356 354 354 355 353 353 355 344 349 349 352 354 332 329 325
326 326 321 317 319 324 319 317 321 333 334 334 336 340 341 341 330 324 337 337 338 339 333 327 330 330 330 328 341 355 347 347 342 346 352 347 346 347 349 350 351 327 322
326 326 319 318 318 320 316 312 319 330 332 333 335 337 326 335 321 319 334 337 336 338 339 338 340 333 332 341 327 351 353 344 342 341 350 345 345 346 342 348 348 347 342
Wind_Speed
5 5 5 5 5 4 5 4 4 5 5 6 7 7 7 7 7 5 5 6 10 12 14 13 12 12 12 12 12 12 12 12 11 11 11 10 10 11 11 9 10 11 11
6 6 6 5 6 6 6 5 4 5 6 6 7 7 8 8 7 7 5 3 9 11 14 14 13 13 13 13 13 13 15 15 13 12 12 12 11 11 12 12 12 12 11
8 8 7 6 7 6 4 6 6 4 6 6 8 8 8 9 7 7 6 4 4 12 14 14 14 14 15 15 14 14 14 15 14 12 13 12 13 12 13 14 14 13 12
11 9 8 8 7 6 5 6 6 6 6 6 7 7 7 8 8 8 7 6 6 7 10 14 14 14 15 17 16 15 14 15 15 15 14 13 14 14 14 14 14 14 14
12 10 9 9 9 7 8 5 7 7 6 6 7 7 8 9 9 8 9 8 8 8 7 9 12 13 15 16 17 17 16 17 17 17 16 16 16 16 15 15 15 15 15
12 11 10 11 9 8 9 6 7 9 8 7 7 8 8 9 9 9 10 10 9 9 9 9 7 9 14 16 16 18 17 17 17 18 18 18 18 18 17 17 16 16 17
12 13 11 11 10 10 11 9 10 11 9 8 7 9 9 10 12 11 10 11 12 11 11 10 7 8 7 14 14 16 18 17 18 18 19 19 18 18 18 17 17 17 17
15 13 14 12 13 11 12 13 12 10 9 8 7 6 8 8 8 11 11 12 14 11 12 13 12 11 10 9 11 12 16 17 17 18 18 18 17 17 17 17 16 17 17
14 14 15 14 13 13 10 13 12 14 11 9 11 7 5 6 5 5 8 10 12 11 12 12 13 12 12 12 11 12 16 16 17 19 19 17 16 17 18 18 18 18 17
14 15 16 15 15 13 13 11 12 12 12 10 7 11 12 11 8 7 4 4 6 9 11 9 10 11 12 11 14 15 11 14 16 17 17 16 17 16 18 18 17 17 18
13 15 14 15 13 12 13 14 12 14 12 11 11 8 11 11 12 12 12 9 8 7 7 7 9 9 10 10 10 13 14 17 14 17 14 15 16 16 16 14 16 18 18
8 12 14 12 14 13 13 13 15 16 14 13 11 12 10 8 10 11 12 13 13 11 10 9 9 9 10 9 10 14 11 11 14 13 13 15 16 16 15 15 15 14 13
8 10 11 12 12 13 14 14 14 15 16 14 15 12 13 14 12 11 11 12 12 10 8 10 9 9 8 8 9 10 12 12 13 12 12 14 14 14 14 14 13 12 10
10 12 12 13 15 15 15 15 13 14 14 14 18 15 12 14 13 13 13 11 12 12 11 13 8 8 8 8 8 5 9 10 12 11 12 14 14 13 12 12 12 11 10
10 12 13 15 15 14 14 15 12 14 14 14 15 16 14 12 13 13 11 10 11 13 13 12 10 8 8 7 7 8 8 8 10 12 12 13 13 12 12 12 12 10 8
12 13 14 14 15 16 16 16 14 15 15 12 12 15 14 13 13 12 13 12 12 12 15 13 11 10 9 6 8 9 10 8 11 12 13 12 13 13 12 12 11 9 9
12 13 14 15 16 16 16 16 17 18 17 15 15 15 16 15 11 10 9 12 13 11 11 14 14 11 11 10 9 10 10 10 9 13 13 13 13 12 12 12 11 11 10
12 13 14 15 16 17 16 18 19 18 19 17 16 16 17 12 17 15 12 19 16 17 15 18 14 13 12 12 12 12 11 10 11 10 12 13 14 13 13 13 11 11 10
14 15 15 16 17 17 18 18 19 19 19 20 19 17 18 17 16 15 16 16 14 13 13 12 14 13 12 10 11 11 11 11 10 9 9 12 14 14 14 14 12 12 10
15 16 17 18 19 19 20 20 20 18 19 19 20 20 21 20 20 19 16 16 11 13 12 10 12 14 11 11 10 9 10 10 10 9 10 11 8 13 15 13 13 12 12
14 17 19 20 22 21 15 19 21 19 17 19 19 19 20 22 24 18 14 14 12 11 9 9 11 10 11 10 12 9 12 8 8 8 9 9 9 10 11 12 11 13 13
14 18 20 21 24 15 20 22 22 16 15 18 17 18 18 18 17 15 16 14 15 13 15 11 12 10 14 12 11 9 10 9 9 8 8 9 8 9 9 10 13 11 16
15 18 19 22 18 13 14 17 20 15 14 15 17 16 15 13 17 17 20 20 21 20 19 14 16 13 12 11 12 9 11 10 9 6 6 7 7 9 9 9 11 13 13
14 15 17 21 20 12 15 17 21 19 16 15 19 18 16 13 15 16 16 16 18 17 16 13 14 12 12 10 12 11 11 11 8 7 6 8 8 9 8 9 11 13 14
12 13 14 21 19 15 18 12 15 13 13 14 12 11 14 14 13 16 15 15 15 16 12 13 13 11 13 13 10 7 7 9 8 8 9 9 8 8 7 8 7 12 9
11 10 12 16 19 14 13 18 12 6 9 8 9 12 13 14 10 13 15 15 15 14 12 7 12 7 13 12 12 13 8 10 11 9 8 9 9 7 7 8 7 6 5
Wind_Direction
236 243 251 259 259 258 267 248 262 268 264 249 251 251 260 261 269 280 273 231 227 224 225 231 234 239 243 245 247 254 262 240 242 244 247 251 253 258 268 270 261 254 250
235 246 255 264 262 264 250 254 229 263 263 260 250 252 259 265 270 284 277 230 218 217 223 228 232 235 241 244 244 247 253 253 246 240 241 246 249 261 270 269 268 267 264
234 249 252 256 260 270 261 275 256 239 251 253 255 258 256 260 268 271 270 269 218 214 228 224 232 233 236 239 241 240 245 254 259 257 248 240 242 242 250 255 261 265 267
233 237 249 256 258 261 262 253 260 251 253 250 259 256 259 266 265 260 258 264 250 257 213 224 232 238 241 237 238 239 240 245 250 250 249 246 244 245 248 248 251 256 258
234 235 241 246 248 253 254 232 259 251 254 249 251 257 258 259 262 261 257 255 253 254 248 210 220 235 244 249 242 236 237 237 237 240 244 243 244 244 242 245 246 247 250
241 235 238 241 233 245 250 231 239 253 253 257 264 262 263 259 256 253 258 256 252 250 247 244 236 236 234 247 242 243 241 235 237 236 238 240 239 240 239 237 240 243 245
249 244 244 245 238 239 240 223 239 247 255 249 262 260 254 251 249 245 244 249 251 247 250 245 240 246 244 226 242 246 243 242 239 239 237 239 236 237 241 240 236 238 241
234 234 241 240 239 242 240 239 232 240 244 238 242 268 274 264 238 242 234 237 241 243 243 239 244 243 249 255 253 236 241 243 242 243 242 240 237 236 236 237 239 239 240
234 226 231 235 233 239 241 233 233 228 236 227 228 228 253 253 303 231 237 245 249 240 244 243 240 241 244 252 254 246 236 243 244 244 247 249 240 236 238 237 235 239 238
253 239 238 234 232 232 233 235 229 227 230 234 223 233 246 266 261 277 204 237 236 242 247 250 245 241 243 246 248 251 250 223 237 245 249 251 252 248 242 241 237 238 239
261 259 253 250 241 238 237 233 222 230 228 233 227 225 228 237 238 258 266 260 245 253 245 233 239 240 234 248 252 250 225 235 234 245 249 249 251 252 256 249 244 242 246
267 257 261 251 249 245 239 233 238 227 226 228 232 227 220 223 221 227 243 256 265 267 264 253 244 244 252 251 245 250 241 227 238 243 244 245 248 249 251 251 252 245 256
284 279 274 263 258 253 253 246 239 237 232 229 225 223 232 237 238 234 245 254 261 262 260 254 250 245 243 245 253 231 230 228 239 242 243 244 244 242 243 244 248 252 258
289 291 283 278 272 265 256 252 247 243 239 236 231 225 227 234 237 234 235 245 256 251 246 258 265 242 237 237 240 206 251 225 239 244 249 247 239 233 229 237 241 236 236
293 291 292 285 275 267 259 250 245 241 238 235 234 230 226 237 232 236 233 234 244 262 258 248 245 241 245 232 229 234 242 238 228 240 245 246 237 224 229 232 228 219 228
296 295 293 287 281 275 266 257 246 240 231 231 232 231 228 231 233 227 232 235 233 243 262 260 257 251 241 235 228 230 236 217 217 239 245 245 242 234 226 227 224 220 226
299 296 294 290 287 282 275 263 251 243 234 224 225 226 225 220 219 220 225 239 235 215 235 258 260 253 233 239 245 239 240 233 241 213 235 241 239 239 233 227 216 217 219
297 294 293 289 286 280 273 269 262 249 237 225 221 220 222 218 216 215 213 214 225 222 210 234 238 240 227 240 241 237 237 241 245 215 211 232 238 234 228 223 216 214 214
295 297 294 287 283 279 274 264 262 254 245 231 218 214 216 214 217 211 218 216 226 235 222 230 241 233 231 222 229 239 237 235 240 233 208 219 230 229 227 219 215 216 210
297 302 296 287 279 274 269 266 259 255 246 242 224 218 217 217 216 211 217 225 236 242 242 235 235 239 223 215 225 238 231 224 235 234 235 249 218 218 226 220 215 213 212
302 304 298 287 283 270 256 254 252 250 243 241 233 221 219 223 220 218 221 228 230 237 235 241 231 231 229 215 220 215 241 241 219 235 241 242 228 227 218 215 231 215 213
318 312 312 299 290 270 256 238 249 252 249 236 231 225 224 218 226 216 220 230 235 237 237 230 227 224 226 222 232 225 230 225 235 213 229 243 245 231 231 219 203 213 206
326 324 318 321 304 275 248 236 240 246 247 241 232 232 221 219 211 221 222 220 233 242 240 237 229 222 226 215 231 213 223 226 220 183 209 243 219 237 230 223 184 200 210
336 326 318 338 326 288 252 236 238 245 241 232 231 233 230 219 213 213 220 217 227 235 230 225 232 229 224 225 224 216 218 230 233 229 203 244 229 241 227 231 173 202 209
332 328 324 342 325 325 329 294 249 240 230 226 230 222 219 222 209 198 220 226 229 236 226 214 223 221 229 226 223 219 209 216 217 220 196 232 226 235 220 228 208 198 208
322 316 324 338 323 327 342 340 296 220 209 210 207 215 208 221 197 198 214 225 229 230 222 208 225 246 251 239 203 220 227 227 232 231 198 218 222 210 224 216 221 188 170